This is the latest recevied weather packets stored in our database for station/object SV9TNF-56. If no packets are shown the sender has not sent any weather packets the latest 10 day(s).
| Time | Temp. | Humidity | Pressure | Rain* | Wind** | Luminosity | Snow |
|---|---|---|---|---|---|---|---|
| 1788058328 | 23.33° C | 67% | 1018.6 hPa | 0 mm | 3.13 m/s, 84° | - | - |
| 1788058027 | 23.33° C | 66% | 1019 hPa | 0 mm | 2.24 m/s, 156° | - | - |
| 1788057727 | 23.33° C | 67% | 1019 hPa | 0 mm | 8.49 m/s, 168° | - | - |
| 1788057427 | 23.33° C | 67% | 1019 hPa | 0 mm | 0 m/s | - | - |
| 1788057127 | 23.33° C | 67% | 1019 hPa | 0 mm | 0 m/s | - | - |
| 1788056827 | 23.33° C | 67% | 1019.3 hPa | 0 mm | 2.24 m/s, 201° | - | - |
| 1788056527 | 23.33° C | 66% | 1019 hPa | 0 mm | 7.6 m/s, 222° | - | - |
| 1788056227 | 23.33° C | 66% | 1019 hPa | 0 mm | 0 m/s | - | - |
| 1788055927 | 23.33° C | 66% | 1019 hPa | 0 mm | 4.92 m/s, 198° | - | - |
| 1788055627 | 23.33° C | 65% | 1019 hPa | 0 mm | 3.13 m/s, 97° | - | - |
| 1788055327 | 23.33° C | 64% | 1019.3 hPa | 0 mm | 2.24 m/s, 232° | - | - |
| 1788055027 | 23.33° C | 65% | 1019 hPa | 0 mm | 13.41 m/s, 149° | - | - |
| 1788054727 | 23.33° C | 65% | 1019 hPa | 0 mm | 7.15 m/s, 149° | - | - |
| 1788054427 | 23.33° C | 65% | 1019 hPa | 0 mm | 6.26 m/s, 156° | - | - |
| 1788054126 | 23.33° C | 64% | 1019 hPa | 0 mm | 2.68 m/s, 162° | - | - |
| 1788053826 | 23.33° C | 65% | 1019 hPa | 0 mm | 4.92 m/s, 206° | - | - |
| 1788053526 | 23.33° C | 65% | 1019.3 hPa | 0 mm | 8.49 m/s, 132° | - | - |
| 1788053226 | 23.33° C | 65% | 1019.3 hPa | 0 mm | 6.26 m/s, 222° | - | - |
| 1788052926 | 23.33° C | 65% | 1019.3 hPa | 0 mm | 1.79 m/s, 186° | - | - |
| 1788052626 | 23.33° C | 67% | 1019.3 hPa | 0 mm | 12.52 m/s, 276° | - | - |
| 1788052326 | 23.33° C | 68% | 1019.3 hPa | 0 mm | 15.2 m/s, 271° | - | - |
| 1788052026 | 22.78° C | 68% | 1019.3 hPa | 0 mm | 6.26 m/s, 330° | - | - |
| 1788051725 | 22.78° C | 69% | 1019 hPa | 0 mm | 12.07 m/s, 323° | - | - |
| 1788051425 | 23.33° C | 71% | 1019.3 hPa | 0 mm | 3.13 m/s, 270° | - | - |
| 1788051125 | 23.33° C | 72% | 1019.3 hPa | 0 mm | 4.92 m/s, 318° | - | - |
* Rain latest hour (hover to see other rain measurements)
** Current wind speed in m/s (hover to see current wind gust speed)